[[{"header":{"parameterUnit":"m.s-1","parameterCategory":1,"la1":30.2991,"la2":30.254,"lo1":-89.0895,"lo2":-89.0444,"dy":0.0017,"dx":0.0017,"nx":28,"ny":28,"refTime":"2025-04-12T21:00:00:Z","depth":0,"parameterNumber":2,"parameterNumberName":"U-component_of_WINDS"},"data":[0,0,0,0,0,0,0,0,0,0,0,0,0,0,0,0,0,0,0,0,0,0,0,0,0,0,0,0,0,0,0,0,0,0,0,0,0,0,0,0,0,0,0,0,0,0,0,0,0,0,0,0,0,0,0,0,0,0,-0.4782,-0.4782,0,-0.4762,-0.4762,-0.4762,-0.472,-0.472,-0.4719,-0.4718,-0.4699,-0.47,-0.47,0,0,0,0,0,0,0,0,0,0,0,0,0,-0.4785,-0.4786,-0.4782,-0.4782,-0.4782,-0.4762,-0.4762,-0.4762,-0.4721,-0.472,-0.4719,-0.4718,-0.4699,-0.47,-0.47,0,0,0,0,0,0,0,0,0,0,0,0,0,-0.4777,-0.4786,-0.4782,-0.4759,-0.4756,-0.4762,-0.4762,-0.4762,-0.4721,-0.472,-0.4718,-0.4717,-0.4699,-0.47,-0.47,-0.4728,0,0,-0.4701,-0.4701,0,0,0,0,0,0,0,0,-0.4777,-0.4777,-0.4762,-0.476,-0.4758,-0.4743,-0.4756,-0.475,-0.4721,-0.4734,-0.4718,-0.4717,-0.4715,-0.4714,-0.4713,-0.4727,-0.4726,-0.4701,-0.4702,-0.4702,-0.4702,0,0,0,0,0,0,0,-0.4778,-0.4777,-0.4774,-0.4762,-0.4759,-0.475,-0.4747,-0.4755,-0.4732,-0.4733,-0.473,-0.4728,-0.4713,-0.4713,-0.4712,-0.4726,-0.4701,-0.4702,-0.4702,-0.4702,-0.4762,-0.4763,0,0,0,0,0,0,-0.4782,-0.4778,-0.4775,-0.4774,-0.4765,-0.4751,-0.4748,-0.4749,-0.4732,-0.4728,-0.4729,-0.4726,-0.4713,-0.4712,-0.4711,-0.4743,-0.4702,-0.4702,-0.4702,-0.4761,-0.4762,-0.4764,0,0,0,0,0,0,-0.4782,-0.4782,-0.4776,-0.4775,-0.4773,-0.4752,-0.4753,-0.4749,-0.4748,-0.4729,-0.4725,-0.4733,-0.4712,-0.4711,-0.4724,-0.4742,-0.4702,-0.4703,-0.4759,-0.4761,-0.4763,-0.4807,0,0,0,0,0,0,-0.4782,-0.4782,-0.4792,-0.4776,-0.4774,-0.4788,-0.4754,-0.475,-0.4749,-0.4745,-0.4731,-0.4728,-0.471,-0.4724,-0.4724,-0.4742,-0.4703,-0.4757,-0.476,-0.4762,-0.4804,-0.4811,-0.4816,0,0,0,0,0,-0.4783,-0.4806,-0.4793,-0.4793,-0.4786,-0.4789,-0.4788,-0.4768,-0.4751,-0.4761,-0.4748,-0.4728,-0.474,-0.4725,-0.4726,-0.4744,-0.4756,-0.4759,-0.4762,-0.4801,-0.4809,-0.4816,0,0,0,0,0,0,-0.4826,-0.4803,-0.4789,-0.4807,-0.48,-0.4782,-0.4795,-0.4777,-0.4775,-0.4772,-0.4747,-0.4744,-0.4761,-0.4753,-0.4738,-0.477,-0.4745,-0.4748,-0.4774,-0.4782,-0.4788,-0.4789,-0.4703,0,0,0,0,0,-0.4837,-0.4842,-0.4822,-0.484,-0.4837,-0.4817,-0.4818,-0.4802,-0.4795,-0.4792,-0.478,-0.4774,-0.4776,-0.4778,-0.4779,-0.4802,-0.4799,-0.4815,-0.4821,-0.4826,-0.483,-0.4842,-0.4849,-0.4774,-0.4774,-0.4774,0,0,-0.4861,-0.485,-0.4854,-0.4848,-0.4841,-0.4847,-0.4815,-0.4822,-0.4826,-0.4793,-0.4805,-0.4796,-0.4788,-0.4806,-0.4814,-0.48,-0.4849,-0.483,-0.4834,-0.4835,-0.4846,-0.4853,-0.4859,-0.4776,-0.4775,-0.4775,0,0,-0.4908,-0.49,-0.4914,-0.4908,-0.4897,-0.4883,-0.4887,-0.4871,-0.4864,-0.4876,-0.4851,-0.4856,-0.486,-0.4855,-0.4853,-0.4898,-0.488,-0.4899,-0.4931,-0.4943,-0.4949,-0.4954,-0.4971,-0.4977,-0.4903,-0.4903,-0.4903,0,-0.494,-0.4947,-0.4924,-0.4933,-0.4931,-0.4901,-0.4916,-0.4911,-0.4902,-0.4902,-0.4887,-0.4892,-0.4884,-0.4901,-0.4912,-0.4911,-0.4915,-0.4901,-0.495,-0.4955,-0.4959,-0.4975,-0.4982,-0.4905,-0.4905,-0.4905,-0.4904,0,-0.4987,-0.4992,-0.5005,-0.4996,-0.4996,-0.5008,-0.4987,-0.499,-0.4975,-0.4963,-0.4975,-0.4964,-0.4963,-0.4965,-0.4951,-0.4981,-0.4973,-0.4954,-0.4929,-0.497,-0.4984,-0.499,-0.4909,-0.4908,-0.4907,-0.4907,0,0,-0.5061,-0.5039,-0.5044,-0.504,-0.5027,-0.5031,-0.5041,-0.5039,-0.5043,-0.5037,-0.5046,-0.505,-0.5033,-0.5031,-0.5015,-0.5026,-0.5064,-0.5006,-0.5006,-0.5018,-0.5097,-0.5112,-0.5119,-0.5051,-0.5052,-0.5053,-0.5098,0,-0.5105,-0.5122,-0.5101,-0.5123,-0.5128,-0.5099,-0.5108,-0.5101,-0.509,-0.5093,-0.5081,-0.5085,-0.5061,-0.506,-0.5069,-0.5057,-0.5079,-0.5053,-0.506,-0.506,-0.5064,-0.5126,-0.5142,-0.5185,-0.5103,-0.5104,-0.5105,0,-0.516,-0.5157,-0.5179,-0.5164,-0.5165,-0.5174,-0.5171,-0.5174,-0.5165,-0.5156,-0.5154,-0.5135,-0.5145,-0.5119,-0.5133,-0.5116,-0.5118,-0.5112,-0.5113,-0.5114,-0.5086,-0.5129,-0.5198,-0.5205,-0.5113,-0.5113,-0.5112,0,-0.5213,-0.5214,-0.5227,-0.5225,-0.5208,-0.5215,-0.5208,-0.5198,-0.5198,-0.5196,-0.5196,-0.5194,-0.5194,-0.5193,-0.5175,-0.5158,-0.5191,-0.5164,-0.5185,-0.5186,-0.5194,-0.5194,-0.5265,-0.5194,-0.5194,-0.5193,-0.5193,0,-0.5265,-0.528,-0.5251,-0.5259,-0.5275,-0.5251,-0.5268,-0.5258,-0.525,-0.5256,-0.5231,-0.5238,-0.5212,-0.5216,-0.5202,-0.5216,-0.5216,-0.5209,-0.5206,-0.5212,-0.5213,-0.5213,-0.521,-0.5195,-0.5195,-0.5194,-0.5194,0,-0.5328,-0.5309,-0.5321,-0.5304,-0.53,-0.5313,-0.5298,-0.5305,-0.5292,-0.5301,-0.5301,-0.5281,-0.5285,-0.5266,-0.5266,-0.5256,-0.5278,-0.5269,-0.5281,-0.5278,-0.5301,-0.53,-0.5375,-0.5384,-0.5306,-0.5307,-0.5308,0,-0.5363,-0.5374,-0.5357,-0.5359,-0.5354,-0.5358,-0.5358,-0.5335,-0.5336,-0.5327,-0.5336,-0.5337,-0.5337,-0.5344,-0.533,-0.533,-0.5321,-0.5348,-0.5321,-0.5328,-0.5323,-0.5323,-0.5324,-0.5354,-0.5355,-0.5355,-0.5356,0,-0.5428,-0.5418,-0.5419,-0.5416,-0.5417,-0.5414,-0.541,-0.5413,-0.5388,-0.5391,-0.5394,-0.5394,-0.5394,-0.5396,-0.5393,-0.5387,-0.5368,-0.5364,-0.5369,-0.5377,-0.5384,-0.5381,-0.5297,-0.5363,-0.5362,-0.5362,-0.5361,-0.5361,-0.5478,-0.5487,-0.5476,-0.5478,-0.5472,-0.5469,-0.5475,-0.5462,-0.5464,-0.5462,-0.5449,-0.5454,-0.5446,-0.544,-0.5436,-0.544,-0.5428,-0.5435,-0.5437,-0.5439,-0.5444,-0.5382,-0.544,-0.5439,-0.5439,-0.5439,-0.5439,0,-0.5543,-0.5534,-0.5536,-0.5531,-0.5532,-0.5513,-0.5507,-0.551,-0.5515,-0.5509,-0.5509,-0.5513,-0.5515,-0.5501,-0.5501,-0.5507,-0.5499,-0.5508,-0.5508,-0.5507,-0.5454,-0.5451,-0.5515,-0.5515,-0.5515,-0.5515,-0.5515,-0.5515,-0.5576,-0.5589,-0.5578,-0.5589,-0.558,-0.5586,-0.5584,-0.5581,-0.5575,-0.5581,-0.5582,-0.5572,-0.5563,-0.5562,-0.5563,-0.5559,-0.5561,-0.5573,-0.5566,-0.5518,-0.5511,-0.5504,-0.55,-0.5574,-0.5574,-0.5619,-0.5619,-0.5619]},{"header":{"parameterUnit":"m.s-1","parameterCategory":1,"la1":30.2991,"la2":30.254,"lo1":-89.0895,"lo2":-89.0444,"dy":0.0017,"dx":0.0017,"nx":28,"ny":28,"refTime":"2025-04-12T21:00:00:Z","depth":0,"parameterNumber":3,"parameterNumberName":"V-component_of_WINDS"},"data":[0,0,0,0,0,0,0,0,0,0,0,0,0,0,0,0,0,0,0,0,0,0,0,0,0,0,0,0,0,0,0,0,0,0,0,0,0,0,0,0,0,0,0,0,0,0,0,0,0,0,0,0,0,0,0,0,0,0,-2.9495,-2.9496,0,-2.9565,-2.9566,-2.9567,-2.9558,-2.9557,-2.9556,-2.9555,-2.9624,-2.9627,-2.9629,0,0,0,0,0,0,0,0,0,0,0,0,0,-2.935,-2.9353,-2.9495,-2.9496,-2.9497,-2.9565,-2.9566,-2.9567,-2.9558,-2.9557,-2.9556,-2.9554,-2.9623,-2.9626,-2.963,0,0,0,0,0,0,0,0,0,0,0,0,0,-2.9416,-2.9354,-2.9495,-2.9501,-2.9502,-2.9565,-2.9566,-2.9567,-2.9559,-2.9557,-2.9555,-2.9554,-2.9622,-2.9626,-2.963,-2.9691,0,0,-2.9643,-2.9645,0,0,0,0,0,0,0,0,-2.9412,-2.9421,-2.9499,-2.95,-2.9502,-2.9551,-2.954,-2.9609,-2.9559,-2.9537,-2.9555,-2.9553,-2.9601,-2.9607,-2.9624,-2.9694,-2.9697,-2.9644,-2.9646,-2.9648,-2.965,0,0,0,0,0,0,0,-2.9408,-2.9418,-2.9523,-2.95,-2.9502,-2.9499,-2.9506,-2.9553,-2.9577,-2.9539,-2.9538,-2.9547,-2.9601,-2.9619,-2.9625,-2.9698,-2.9644,-2.9648,-2.965,-2.9652,-2.9824,-2.9826,0,0,0,0,0,0,-2.9402,-2.9414,-2.952,-2.9525,-2.9452,-2.9503,-2.9511,-2.9537,-2.9577,-2.9581,-2.9548,-2.9546,-2.9613,-2.962,-2.9628,-2.9703,-2.9648,-2.9652,-2.9655,-2.9822,-2.9824,-2.9826,0,0,0,0,0,0,-2.9399,-2.9412,-2.9518,-2.947,-2.9483,-2.9507,-2.9536,-2.9539,-2.9558,-2.9584,-2.9588,-2.9563,-2.9612,-2.9621,-2.9676,-2.9705,-2.9654,-2.9658,-2.982,-2.9823,-2.9825,-2.9853,0,0,0,0,0,0,-2.9395,-2.9411,-2.9434,-2.947,-2.9485,-2.9566,-2.9538,-2.9542,-2.9565,-2.9563,-2.9599,-2.9603,-2.9611,-2.9669,-2.968,-2.971,-2.9662,-2.9817,-2.9821,-2.9824,-2.985,-2.9857,-2.9863,0,0,0,0,0,-2.939,-2.9438,-2.9436,-2.9449,-2.9516,-2.9567,-2.9576,-2.9585,-2.9568,-2.9592,-2.9609,-2.9602,-2.97,-2.9675,-2.9687,-2.9719,-2.9815,-2.982,-2.9824,-2.9847,-2.9855,-2.9863,0,0,0,0,0,0,-2.9404,-2.9443,-2.9441,-2.9503,-2.9532,-2.9566,-2.9596,-2.9594,-2.9628,-2.9624,-2.9633,-2.9642,-2.9697,-2.9713,-2.9685,-2.9781,-2.9755,-2.9762,-2.9768,-2.9777,-2.9783,-2.9778,-2.9665,0,0,0,0,0,-2.9415,-2.9454,-2.9485,-2.9537,-2.9552,-2.9572,-2.9594,-2.9599,-2.963,-2.9642,-2.9663,-2.9692,-2.9729,-2.9753,-2.9789,-2.9852,-2.986,-2.9879,-2.9886,-2.9891,-2.9897,-2.9933,-2.9942,-2.9841,-2.9841,-2.9841,0,0,-2.9436,-2.9463,-2.9487,-2.9541,-2.9564,-2.9604,-2.9582,-2.9625,-2.9655,-2.9648,-2.9701,-2.9718,-2.975,-2.981,-2.9837,-2.9825,-2.9927,-2.9897,-2.9901,-2.9904,-2.9938,-2.9948,-2.9957,-2.9844,-2.9843,-2.9843,0,0,-2.9497,-2.9521,-2.9567,-2.9592,-2.9628,-2.9641,-2.9652,-2.9686,-2.9698,-2.9752,-2.9748,-2.9782,-2.9846,-2.987,-2.9891,-2.9962,-2.9957,-2.9973,-3.0007,-3.0042,-3.005,-3.0057,-3.0084,-3.0093,-2.9979,-2.9979,-2.9979,0,-2.952,-2.9581,-2.9591,-2.9636,-2.966,-2.9656,-2.9703,-2.9726,-2.9771,-2.9788,-2.9773,-2.9855,-2.9876,-2.9942,-2.996,-2.9976,-2.9989,-2.997,-3.0048,-3.0055,-3.0062,-3.0088,-3.0098,-2.9981,-2.9981,-2.9981,-2.998,0,-2.9608,-2.965,-2.9683,-2.9729,-2.9757,-2.9802,-2.9819,-2.9845,-2.9847,-2.9862,-2.9917,-2.9943,-2.9985,-3.0,-3.0002,-3.0067,-3.0058,-3.0046,-3.0021,-3.0074,-3.0098,-3.0108,-2.9984,-2.9983,-2.9982,-2.9982,0,0,-2.968,-2.9732,-2.9744,-2.9766,-2.9805,-2.9838,-2.9883,-2.9925,-2.9949,-2.998,-3.0018,-3.0073,-3.0062,-3.0086,-3.009,-3.012,-3.0177,-3.0105,-3.0106,-3.0118,-3.0251,-3.0261,-3.0272,-3.0173,-3.0175,-3.0177,-3.0249,0,-2.9746,-2.9828,-2.9838,-2.991,-2.995,-2.9948,-2.9987,-3.0016,-3.003,-3.0065,-3.008,-3.012,-3.0102,-3.0117,-3.0146,-3.0164,-3.0204,-3.0158,-3.0209,-3.0211,-3.0203,-3.0285,-3.0295,-3.0362,-3.0258,-3.026,-3.0261,0,-2.9834,-2.987,-2.9947,-2.9983,-3.0,-3.0035,-3.0076,-3.0109,-3.0141,-3.015,-3.0177,-3.0178,-3.0224,-3.0196,-3.026,-3.0229,-3.025,-3.0262,-3.0265,-3.0271,-3.024,-3.0294,-3.0383,-3.0394,-3.0275,-3.0274,-3.0273,0,-2.9881,-2.9948,-3.0004,-3.0022,-3.0064,-3.009,-3.0108,-3.0139,-3.0164,-3.0199,-3.0215,-3.0254,-3.0275,-3.0305,-3.0317,-3.0295,-3.0381,-3.0353,-3.0389,-3.0389,-3.0409,-3.0408,-3.0504,-3.042,-3.0419,-3.0419,-3.0419,0,-2.9955,-3.0002,-3.0026,-3.006,-3.0113,-3.0124,-3.0176,-3.0193,-3.0221,-3.0258,-3.0256,-3.0291,-3.0303,-3.034,-3.0349,-3.0401,-3.0411,-3.0419,-3.0421,-3.042,-3.0419,-3.0435,-3.0431,-3.0422,-3.0421,-3.0421,-3.042,0,-3.0017,-3.0035,-3.0095,-3.0131,-3.0141,-3.0179,-3.0209,-3.0242,-3.0256,-3.0303,-3.0314,-3.0336,-3.0379,-3.0394,-3.0445,-3.0451,-3.0513,-3.051,-3.0503,-3.0503,-3.0539,-3.0536,-3.065,-3.0666,-3.057,-3.0571,-3.0572,0,-3.0064,-3.0101,-3.0141,-3.0167,-3.0187,-3.0228,-3.0254,-3.0266,-3.0293,-3.0333,-3.0361,-3.0404,-3.0439,-3.0508,-3.0528,-3.0567,-3.0567,-3.0604,-3.0572,-3.0571,-3.0569,-3.0568,-3.0572,-3.061,-3.0611,-3.0612,-3.0612,0,-3.0145,-3.0152,-3.0191,-3.0233,-3.0265,-3.0298,-3.033,-3.035,-3.0367,-3.0398,-3.0443,-3.047,-3.0523,-3.0566,-3.0607,-3.0625,-3.0622,-3.0622,-3.0633,-3.0633,-3.0628,-3.0633,-3.052,-3.062,-3.0619,-3.0618,-3.0618,-3.0618,-3.0202,-3.0235,-3.027,-3.0313,-3.0339,-3.0369,-3.0402,-3.0421,-3.0459,-3.0505,-3.0509,-3.0558,-3.0589,-3.0644,-3.0664,-3.0702,-3.0691,-3.0706,-3.0711,-3.0715,-3.0718,-3.0621,-3.0709,-3.0709,-3.0709,-3.0709,-3.0708,0,-3.0285,-3.0308,-3.0347,-3.0393,-3.0427,-3.0422,-3.0457,-3.0486,-3.053,-3.056,-3.0595,-3.0647,-3.0689,-3.0712,-3.0754,-3.078,-3.078,-3.0791,-3.079,-3.0794,-3.0724,-3.0712,-3.079,-3.079,-3.079,-3.079,-3.079,-3.079,-3.0332,-3.0389,-3.04,-3.047,-3.0491,-3.054,-3.0561,-3.0589,-3.0614,-3.0672,-3.0708,-3.0723,-3.0751,-3.0795,-3.0833,-3.0839,-3.0855,-3.0867,-3.0872,-3.0807,-3.0799,-3.0791,-3.0779,-3.087,-3.087,-3.0939,-3.094,-3.094]}]]